Location: Quedlinburg
(51.7921°N, 11.1414°E)
Time: 15:44:08
(UTC+02:00)

CUBESAT XI-V - Pass Details

Date: 19 March 2026
Orbit: 643 x 664 km, 98.3° (Epoch: 17 April)

Event Time Altitude Azimuth Distance (km) Brightness Sun altitude
Exits shadow 01:54:28 20° 52° (NE) 1,503 ? -35.4°
Drops below altitude 10° 01:57:23 10° 11° (NNE) 2,066 ? -35.1°
Sets 02:00:04 0° 355° (N) 2,978 ? -34.9°
